DateTimeUTC,F1_A11,F1_S11,BsB_S11,BsG_S11,BsR_S11,BbsB_S11,BbsG_S11,BbsR_S11,BaB_A11,BaG_A11,BaR_A11,Tu_S11,T_S11,Uu_S11,U_S11,P_S11,T1_A11
2021-07-11T09:00:00Z,00000200,20000000,,,,,,,-000.09,-000.27,0000.36,18.4,24.9,10.4,07.0,0676.0,31.0
2021-07-11T09:01:00Z,00000200,20000000,,,,,,,-000.19,0000.47,-000.44,18.4,24.9,10.4,07.0,0676.0,31.0
2021-07-11T09:02:00Z,00000200,20000000,,,,,,,0000.24,-000.18,0000.45,18.4,24.9,10.4,07.0,0676.0,31.0
2021-07-11T09:03:00Z,00000200,60000000,,,,,,,-000.31,0000.00,0000.06,18.4,24.9,10.4,07.0,0676.0,31.0
2021-07-11T09:04:00Z,00000200,40000000,0000.77,0000.70,0000.44,0000.60,0000.04,-000.14,0000.26,0000.34,-000.26,18.5,24.8,10.1,06.9,0676.9,31.0
2021-07-11T09:05:00Z,00000200,00000000,-000.07,0000.53,0000.08,0000.30,0000.26,0000.30,-000.18,-000.26,0000.08,18.5,24.7,10.0,06.9,0676.9,31.0
2021-07-11T09:06:00Z,00000200,00000000,0000.58,0000.37,0000.12,0000.15,0000.06,-000.04,0000.51,0000.15,-000.04,18.5,24.7,10.0,06.9,0676.9,31.0
2021-07-11T09:07:00Z,00000200,00000000,0000.55,0000.72,0000.07,-000.26,0000.32,-000.03,-000.03,-000.14,0000.18,18.5,24.7,10.1,06.9,0676.9,31.0
2021-07-11T09:08:00Z,00000200,00000000,0001.12,0000.57,0000.35,0000.62,0000.08,-000.05,-000.14,-000.14,-000.07,18.6,24.7,10.0,06.9,0676.9,31.0
2021-07-11T09:09:00Z,00000200,00000000,0000.44,0000.72,0000.36,-000.48,0000.41,0000.20,-000.39,0000.05,0000.13,18.6,24.7,10.0,06.9,0676.9,31.0
2021-07-11T09:10:00Z,00000200,00000000,0000.59,0000.67,0000.18,0000.70,0000.04,0000.01,0000.21,0000.16,-000.30,18.6,24.7,10.0,06.9,0676.9,31.0
2021-07-11T09:11:00Z,00000200,00000000,0000.62,0000.49,0000.34,0000.11,0000.19,0000.04,-000.26,-000.38,0000.08,18.6,24.7,10.0,06.9,0676.9,31.0
2021-07-11T09:12:00Z,00000200,00000000,0000.18,0000.49,0000.21,0000.47,0000.31,0000.18,0000.50,0000.24,0000.23,18.6,24.7,09.9,06.8,0676.9,31.0
2021-07-11T09:13:00Z,00000200,00000000,0000.27,0000.47,0000.03,-000.35,0000.39,0000.29,-000.18,-000.01,-000.38,18.6,24.7,10.0,06.9,0676.9,31.0
2021-07-11T09:14:00Z,00000200,00000000,0000.63,0000.55,0000.16,0000.01,0000.45,0000.28,0000.26,0000.30,0000.12,18.6,24.7,10.0,06.9,0676.9,31.0
2021-07-11T09:15:00Z,00000200,00000000,0000.96,0000.50,0000.09,-000.03,0000.21,-000.17,-000.13,-000.12,0000.28,18.6,24.7,10.0,06.9,0676.9,31.0
2021-07-11T09:16:00Z,00000200,00000000,0000.12,0000.72,0000.18,0000.44,0000.19,-000.13,0000.29,-000.03,-000.16,18.6,24.7,10.0,06.9,0676.9,31.0
2021-07-11T09:17:00Z,00000200,00000000,0000.52,0000.82,0000.23,-000.03,0000.04,0000.03,-000.26,0000.06,0000.11,18.6,24.7,10.1,06.9,0676.9,31.0
2021-07-11T09:18:00Z,00000200,00000000,0001.16,0000.40,0000.21,0000.27,0000.31,0000.14,0000.08,0000.04,0000.07,18.6,24.7,10.0,06.9,0676.9,31.0
2021-07-11T09:19:00Z,00000200,00000000,0000.51,0000.45,-000.14,0000.25,0000.09,-000.09,-000.06,0000.13,0000.06,18.6,24.7,10.0,06.9,0676.9,31.0
2021-07-11T09:20:00Z,00000200,00000000,-000.40,0000.59,0000.60,0000.14,0000.32,0000.28,0000.13,-000.26,-000.26,18.6,24.7,10.1,06.9,0676.9,31.0
2021-07-11T09:21:00Z,00000200,00000000,0000.50,0000.34,0000.25,0000.14,0000.02,-000.09,0000.12,0000.32,0000.32,18.6,24.7,10.0,06.9,0676.9,31.0
2021-07-11T09:22:00Z,00000200,00000000,0000.75,0000.23,0000.04,0000.64,0000.24,-000.00,-000.49,-000.10,-000.29,18.6,24.7,10.0,06.9,0676.9,31.0
2021-07-11T09:23:00Z,00000200,00000000,0000.23,0000.52,0000.37,0000.09,0000.11,-000.07,0000.33,-000.32,-000.01,18.6,24.7,09.9,06.8,0676.9,31.0
2021-07-11T09:24:00Z,00000200,00000000,0000.78,0000.49,0000.15,-000.01,0000.25,-000.27,0000.11,0000.33,0000.14,18.6,24.7,09.7,06.7,0676.9,31.0
2021-07-11T09:25:00Z,00000200,00000000,0000.19,0000.92,0000.22,-000.25,0000.14,0000.24,-000.07,0000.09,-000.08,18.6,24.7,09.7,06.7,0676.9,31.0
2021-07-11T09:26:00Z,00000200,00000000,0000.35,0000.52,0000.04,-000.07,0000.24,-000.30,-000.16,-000.38,0000.09,18.6,24.7,09.6,06.6,0676.9,31.0
2021-07-11T09:27:00Z,00000200,00000000,0000.23,0000.48,0000.27,-000.14,0000.19,0000.11,0000.17,0000.37,0000.00,18.6,24.7,09.7,06.7,0676.9,31.0
2021-07-11T09:28:00Z,00000200,00000000,0000.25,0000.33,0000.16,0000.24,0000.24,-000.13,-000.23,-000.23,-000.10,18.6,24.7,09.7,06.7,0676.9,31.0
2021-07-11T09:29:00Z,00000200,00000000,0000.75,0000.62,-000.16,0000.20,0000.34,0000.09,0000.07,0000.18,0000.13,18.6,24.7,09.6,06.6,0676.9,31.0
2021-07-11T09:30:00Z,00000200,00000000,0000.51,0000.66,0000.09,0000.39,0000.39,-000.05,0000.20,-000.01,0000.13,18.6,24.7,09.5,06.6,0676.9,31.0
2021-07-11T09:31:00Z,00000200,00000000,0000.41,0000.62,0000.44,0000.24,0000.22,-000.33,-000.27,-000.05,0000.05,18.6,24.7,09.6,06.6,0676.9,31.0
2021-07-11T09:32:00Z,00000200,00000000,0000.09,0000.25,0000.17,0000.40,0000.28,0000.05,0000.06,-000.46,-000.07,18.6,24.7,09.6,06.6,0676.8,31.0
2021-07-11T09:33:00Z,00000200,00000000,0001.24,0000.40,0000.14,0000.07,0000.25,0000.06,0000.11,0000.47,0000.18,18.6,24.7,09.5,06.6,0676.9,31.0
2021-07-11T09:34:00Z,00000200,00000000,0000.86,0000.44,0000.10,0000.83,0000.42,-000.39,0000.14,-000.01,-000.54,18.6,24.7,09.4,06.5,0676.8,31.0
2021-07-11T09:35:00Z,00000200,00000000,0000.10,0000.54,0000.50,0000.43,0000.39,0000.17,-000.16,0000.15,0000.54,18.6,24.7,09.5,06.5,0676.8,31.0
2021-07-11T09:36:00Z,00000200,00000000,0001.21,0000.64,0000.13,0000.26,0000.37,-000.19,0000.18,-000.08,-000.17,18.6,24.7,09.5,06.6,0676.8,31.0
2021-07-11T09:37:00Z,00000200,00000000,0000.58,0000.66,0000.34,0000.41,0000.29,-000.04,-000.03,-000.06,0000.03,18.6,24.7,09.4,06.5,0676.8,31.0
2021-07-11T09:38:00Z,00000200,00000000,0001.23,0000.54,0000.13,0000.69,0000.19,0000.15,-000.19,0000.09,0000.25,18.6,24.7,09.4,06.5,0676.8,31.0
2021-07-11T09:39:00Z,00000200,00000000,0000.65,0000.31,0000.16,0000.79,0000.26,-000.00,0000.01,-000.08,-000.26,18.6,24.7,09.5,06.5,0676.8,31.0
2021-07-11T09:40:00Z,00000200,00000000,0000.92,0000.69,0000.03,0000.24,0000.15,0000.02,0000.16,0000.04,0000.20,18.6,24.7,09.5,06.5,0676.8,31.0
2021-07-11T09:41:00Z,00000200,00000000,0000.18,0000.47,0000.22,0000.00,0000.18,0000.11,-000.03,-000.00,-000.23,18.6,24.7,09.4,06.5,0676.8,31.0
2021-07-11T09:42:00Z,00000200,00000000,0000.44,0000.79,0000.22,0000.29,0000.20,0000.13,-000.03,0000.23,0000.32,18.6,24.7,09.4,06.5,0676.8,31.0
2021-07-11T09:43:00Z,00000200,00000000,0000.68,0000.44,0000.06,-000.31,0000.20,-000.03,0000.03,-000.23,-000.38,18.6,24.7,09.4,06.5,0676.8,31.0
2021-07-11T09:44:00Z,00000200,00000000,0000.77,0000.41,-000.03,0000.36,0000.25,-000.15,-000.04,-000.09,-000.05,18.6,24.7,09.3,06.4,0676.7,31.0
2021-07-11T09:45:00Z,00000200,00000000,0000.38,0000.56,0000.09,0000.20,0000.46,-000.23,0000.06,0000.20,0000.26,18.6,24.7,09.4,06.5,0676.8,31.0
2021-07-11T09:46:00Z,00000200,00000000,-000.01,0000.58,0000.14,0000.24,-000.08,-000.16,-000.27,0000.01,-000.19,18.6,24.7,09.3,06.4,0676.7,31.0
2021-07-11T09:47:00Z,00000200,00000000,0000.34,0000.77,0000.25,-000.18,0000.01,-000.05,0000.29,-000.03,0000.06,18.6,24.7,09.3,06.4,0676.7,31.0
2021-07-11T09:48:00Z,00000200,00000000,0000.68,0000.40,0000.19,-000.19,-000.07,0000.32,0000.28,0000.05,0000.24,18.6,24.7,09.2,06.4,0676.7,31.0
2021-07-11T09:49:00Z,00000200,00000000,0000.46,0000.70,0000.04,0000.67,0000.30,0000.03,-000.00,0000.00,0000.02,18.6,24.7,09.3,06.4,0676.7,31.0
2021-07-11T09:50:00Z,00000200,00000000,0000.24,0000.45,0000.39,0000.82,0000.24,0000.27,0000.09,0000.16,-000.07,18.6,24.7,09.2,06.4,0676.7,31.0
2021-07-11T09:51:00Z,00000200,00000000,0001.10,0000.83,0000.31,0000.17,0000.19,0000.17,0000.03,-000.10,-000.02,18.6,24.7,09.3,06.4,0676.7,31.0
2021-07-11T09:52:00Z,00000200,00000000,0001.23,0000.55,0000.51,-000.27,0000.21,-000.35,-000.24,0000.05,0000.03,18.6,24.7,09.1,06.3,0676.7,31.0
2021-07-11T09:53:00Z,00000200,00000000,0001.30,0000.72,0000.43,0000.03,-000.04,0000.05,0000.12,-000.04,0000.03,18.6,24.7,09.2,06.4,0676.7,31.0
2021-07-11T09:54:00Z,00000200,00000000,0001.07,0000.96,0000.15,-000.24,0000.26,-000.42,0000.03,0000.03,0000.20,18.6,24.7,09.2,06.4,0676.7,31.0
2021-07-11T09:55:00Z,00000200,00000000,0000.92,0001.00,0000.33,0000.67,0000.06,0000.16,0000.14,-000.00,-000.04,18.6,24.7,09.2,06.4,0676.7,31.0
2021-07-11T09:56:00Z,00000200,00000000,0000.17,0000.94,0000.03,0000.15,0000.27,0000.07,-000.06,0000.11,-000.00,18.6,24.7,09.2,06.4,0676.7,31.0
2021-07-11T09:57:00Z,00000200,40000000,,,,,,,0000.10,0000.28,0000.08,18.7,24.7,09.7,06.7,0676.6,31.0
2021-07-11T09:58:00Z,00000200,60000000,,,,,,,-000.13,-000.30,-000.17,18.4,24.8,09.4,06.3,0675.6,31.0
2021-07-11T09:59:00Z,00000200,20000000,,,,,,,0000.05,0000.19,-000.07,18.4,24.9,09.4,06.3,0675.6,31.0
